owner,sensor,date,latitude,longitude,vertical_datum,wind_speed,wind_to_direction,wind_speed_of_gust,qcFlag 
TCOON,ioos:station:TCOON:057:1,2013-09-01T00:00:00Z,28.4460,-96.3961,0.0,4.7,164.0,5.9,'11111222,11111222,11111222' 
TCOON,ioos:station:TCOON:057:1,2013-09-01T00:06:00Z,28.4460,-96.3961,0.0,4.9,164.0,5.9,'11111222,11111222,11111222' 
TCOON,ioos:station:TCOON:057:1,2013-09-01T00:12:00Z,28.4460,-96.3961,0.0,5.3,174.0,6.3,'11111222,11111222,11111222' 
TCOON,ioos:station:TCOON:057:1,2013-09-01T00:18:00Z,28.4460,-96.3961,0.0,5.4,179.0,6.4,'11111222,11111222,11111222' 
TCOON,ioos:station:TCOON:057:1,2013-09-01T00:24:00Z,28.4460,-96.3961,0.0,4.7,182.0,6.6,'11111222,11111222,11111222' 
TCOON,ioos:station:TCOON:057:1,2013-09-01T00:30:00Z,28.4460,-96.3961,0.0,4.9,171.0,6.1,'11111222,11111222,11111222' 
TCOON,ioos:station:TCOON:057:1,2013-09-01T00:36:00Z,28.4460,-96.3961,0.0,5.0,176.0,5.7,'11111222,11111222,11111222' 
TCOON,ioos:station:TCOON:057:1,2013-09-01T00:42:00Z,28.4460,-96.3961,0.0,4.8,170.0,6.1,'11111222,11111222,11111222' 
TCOON,ioos:station:TCOON:057:1,2013-09-01T00:48:00Z,28.4460,-96.3961,0.0,5.0,174.0,5.8,'11111222,11111222,11111222' 
TCOON,ioos:station:TCOON:057:1,2013-09-01T00:54:00Z,28.4460,-96.3961,0.0,5.0,172.0,6.2,'11111222,11111222,11111222' 
TCOON,ioos:station:TCOON:057:1,2013-09-01T01:00:00Z,28.4460,-96.3961,0.0,5.3,181.0,6.4,'11111222,11111222,11111222' 
TCOON,ioos:station:TCOON:057:1,2013-09-01T01:06:00Z,28.4460,-96.3961,0.0,4.6,176.0,6.2,'11111222,11111222,11111222' 
TCOON,ioos:station:TCOON:057:1,2013-09-01T01:12:00Z,28.4460,-96.3961,0.0,4.8,174.0,6.1,'11111222,11111222,11111222' 
TCOON,ioos:station:TCOON:057:1,2013-09-01T01:18:00Z,28.4460,-96.3961,0.0,5.5,180.0,6.4,'11111222,11111222,11111222' 
TCOON,ioos:station:TCOON:057:1,2013-09-01T01:24:00Z,28.4460,-96.3961,0.0,5.1,168.0,6.3,'11111222,11111222,11111222' 
TCOON,ioos:station:TCOON:057:1,2013-09-01T01:30:00Z,28.4460,-96.3961,0.0,5.9,164.0,6.6,'11111222,11111222,11111222' 
TCOON,ioos:station:TCOON:057:1,2013-09-01T01:36:00Z,28.4460,-96.3961,0.0,5.2,174.0,6.3,'11111222,11111222,11111222' 
TCOON,ioos:station:TCOON:057:1,2013-09-01T01:42:00Z,28.4460,-96.3961,0.0,5.0,166.0,5.7,'11111222,11111222,11111222' 
TCOON,ioos:station:TCOON:057:1,2013-09-01T01:48:00Z,28.4460,-96.3961,0.0,4.9,164.0,5.9,'11111222,11111222,11111222' 
TCOON,ioos:station:TCOON:057:1,2013-09-01T01:54:00Z,28.4460,-96.3961,0.0,5.2,164.0,6.0,'11111222,11111222,11111222' 
TCOON,ioos:station:TCOON:057:1,2013-09-01T02:00:00Z,28.4460,-96.3961,0.0,5.6,158.0,6.3,'11111222,11111222,11111222' 
TCOON,ioos:station:TCOON:057:1,2013-09-01T02:06:00Z,28.4460,-96.3961,0.0,5.0,159.0,6.0,'11111222,11111222,11111222' 
TCOON,ioos:station:TCOON:057:1,2013-09-01T02:12:00Z,28.4460,-96.3961,0.0,5.5,162.0,6.0,'11111222,11111222,11111222' 
TCOON,ioos:station:TCOON:057:1,2013-09-01T02:18:00Z,28.4460,-96.3961,0.0,5.1,165.0,5.9,'11111222,11111222,11111222' 
TCOON,ioos:station:TCOON:057:1,2013-09-01T02:24:00Z,28.4460,-96.3961,0.0,4.7,170.0,6.2,'11111222,11111222,11111222' 
TCOON,ioos:station:TCOON:057:1,2013-09-01T02:30:00Z,28.4460,-96.3961,0.0,4.5,169.0,5.8,'11111222,11111222,11111222' 
TCOON,ioos:station:TCOON:057:1,2013-09-01T02:36:00Z,28.4460,-96.3961,0.0,5.1,163.0,6.1,'11111222,11111222,11111222' 
TCOON,ioos:station:TCOON:057:1,2013-09-01T02:42:00Z,28.4460,-96.3961,0.0,4.8,165.0,5.8,'11111222,11111222,11111222' 
TCOON,ioos:station:TCOON:057:1,2013-09-01T02:48:00Z,28.4460,-96.3961,0.0,5.3,168.0,6.3,'11111222,11111222,11111222' 
TCOON,ioos:station:TCOON:057:1,2013-09-01T02:54:00Z,28.4460,-96.3961,0.0,4.7,162.0,6.1,'11111222,11111222,11111222' 
TCOON,ioos:station:TCOON:057:1,2013-09-01T03:00:00Z,28.4460,-96.3961,0.0,4.8,159.0,6.0,'11111222,11111222,11111222' 
TCOON,ioos:station:TCOON:057:1,2013-09-01T03:06:00Z,28.4460,-96.3961,0.0,4.6,158.0,5.9,'11111222,11111222,11111222' 
TCOON,ioos:station:TCOON:057:1,2013-09-01T03:12:00Z,28.4460,-96.3961,0.0,5.4,160.0,6.2,'11111222,11111222,11111222' 
TCOON,ioos:station:TCOON:057:1,2013-09-01T03:18:00Z,28.4460,-96.3961,0.0,5.3,170.0,6.4,'11111222,11111222,11111222' 
TCOON,ioos:station:TCOON:057:1,2013-09-01T03:24:00Z,28.4460,-96.3961,0.0,5.5,169.0,6.1,'11111222,11111222,11111222' 
TCOON,ioos:station:TCOON:057:1,2013-09-01T03:30:00Z,28.4460,-96.3961,0.0,5.4,164.0,6.5,'11111222,11111222,11111222' 
TCOON,ioos:station:TCOON:057:1,2013-09-01T03:36:00Z,28.4460,-96.3961,0.0,5.5,168.0,6.3,'11111222,11111222,11111222' 
TCOON,ioos:station:TCOON:057:1,2013-09-01T03:42:00Z,28.4460,-96.3961,0.0,5.8,172.0,6.5,'11111222,11111222,11111222' 
TCOON,ioos:station:TCOON:057:1,2013-09-01T03:48:00Z,28.4460,-96.3961,0.0,6.0,174.0,6.8,'11111222,11111222,11111222' 
TCOON,ioos:station:TCOON:057:1,2013-09-01T03:54:00Z,28.4460,-96.3961,0.0,5.8,181.0,6.5,'11111222,11111222,11111222' 
TCOON,ioos:station:TCOON:057:1,2013-09-01T04:00:00Z,28.4460,-96.3961,0.0,6.4,173.0,7.2,'11111222,11111222,11111222' 
TCOON,ioos:station:TCOON:057:1,2013-09-01T04:06:00Z,28.4460,-96.3961,0.0,6.3,176.0,7.3,'11111222,11111222,11111222' 
TCOON,ioos:station:TCOON:057:1,2013-09-01T04:12:00Z,28.4460,-96.3961,0.0,6.7,182.0,7.9,'11111222,11111222,11111222' 
TCOON,ioos:station:TCOON:057:1,2013-09-01T04:18:00Z,28.4460,-96.3961,0.0,6.9,175.0,7.9,'11111222,11111222,11111222' 
TCOON,ioos:station:TCOON:057:1,2013-09-01T04:24:00Z,28.4460,-96.3961,0.0,6.7,174.0,7.5,'11111222,11111222,11111222' 
TCOON,ioos:station:TCOON:057:1,2013-09-01T04:30:00Z,28.4460,-96.3961,0.0,6.6,175.0,7.9,'11111222,11111222,11111222' 
TCOON,ioos:station:TCOON:057:1,2013-09-01T04:36:00Z,28.4460,-96.3961,0.0,7.4,167.0,8.1,'11111222,11111222,11111222' 
TCOON,ioos:station:TCOON:057:1,2013-09-01T04:42:00Z,28.4460,-96.3961,0.0,6.9,167.0,8.0,'11111222,11111222,11111222' 
TCOON,ioos:station:TCOON:057:1,2013-09-01T04:48:00Z,28.4460,-96.3961,0.0,6.7,174.0,8.1,'11111222,11111222,11111222' 
TCOON,ioos:station:TCOON:057:1,2013-09-01T04:54:00Z,28.4460,-96.3961,0.0,7.1,177.0,8.7,'11111222,11111222,11111222' 
TCOON,ioos:station:TCOON:057:1,2013-09-01T05:00:00Z,28.4460,-96.3961,0.0,7.1,168.0,9.3,'11111222,11111222,11111222' 
TCOON,ioos:station:TCOON:057:1,2013-09-01T05:06:00Z,28.4460,-96.3961,0.0,7.4,172.0,8.3,'11111222,11111222,11111222' 
TCOON,ioos:station:TCOON:057:1,2013-09-01T05:12:00Z,28.4460,-96.3961,0.0,7.5,174.0,8.9,'11111222,11111222,11111222' 
TCOON,ioos:station:TCOON:057:1,2013-09-01T05:18:00Z,28.4460,-96.3961,0.0,7.3,170.0,8.5,'11111222,11111222,11111222' 
TCOON,ioos:station:TCOON:057:1,2013-09-01T05:24:00Z,28.4460,-96.3961,0.0,7.9,181.0,9.2,'11111222,11111222,11111222' 
TCOON,ioos:station:TCOON:057:1,2013-09-01T05:30:00Z,28.4460,-96.3961,0.0,8.0,178.0,9.1,'11111222,11111222,11111222' 
TCOON,ioos:station:TCOON:057:1,2013-09-01T05:36:00Z,28.4460,-96.3961,0.0,7.5,174.0,8.7,'11111222,11111222,11111222' 
TCOON,ioos:station:TCOON:057:1,2013-09-01T05:42:00Z,28.4460,-96.3961,0.0,7.6,180.0,8.4,'11111222,11111222,11111222' 
TCOON,ioos:station:TCOON:057:1,2013-09-01T05:48:00Z,28.4460,-96.3961,0.0,8.1,174.0,9.0,'11111222,11111222,11111222' 
TCOON,ioos:station:TCOON:057:1,2013-09-01T05:54:00Z,28.4460,-96.3961,0.0,7.7,171.0,9.0,'11111222,11111222,11111222' 
TCOON,ioos:station:TCOON:057:1,2013-09-01T06:00:00Z,28.4460,-96.3961,0.0,7.6,173.0,9.3,'11111222,11111222,11111222' 
TCOON,ioos:station:TCOON:057:1,2013-09-01T06:06:00Z,28.4460,-96.3961,0.0,7.6,176.0,9.2,'11111222,11111222,11111222' 
TCOON,ioos:station:TCOON:057:1,2013-09-01T06:12:00Z,28.4460,-96.3961,0.0,7.6,168.0,8.5,'11111222,11111222,11111222' 
TCOON,ioos:station:TCOON:057:1,2013-09-01T06:18:00Z,28.4460,-96.3961,0.0,7.3,172.0,8.7,'11111222,11111222,11111222' 
TCOON,ioos:station:TCOON:057:1,2013-09-01T06:24:00Z,28.4460,-96.3961,0.0,7.8,173.0,9.2,'11111222,11111222,11111222' 
TCOON,ioos:station:TCOON:057:1,2013-09-01T06:30:00Z,28.4460,-96.3961,0.0,8.6,174.0,9.4,'11111222,11111222,11111222' 
TCOON,ioos:station:TCOON:057:1,2013-09-01T06:36:00Z,28.4460,-96.3961,0.0,7.6,177.0,9.6,'11111222,11111222,11111222' 
TCOON,ioos:station:TCOON:057:1,2013-09-01T06:42:00Z,28.4460,-96.3961,0.0,7.9,175.0,9.0,'11111222,11111222,11111222' 
TCOON,ioos:station:TCOON:057:1,2013-09-01T06:48:00Z,28.4460,-96.3961,0.0,7.8,177.0,9.6,'11111222,11111222,11111222' 
TCOON,ioos:station:TCOON:057:1,2013-09-01T06:54:00Z,28.4460,-96.3961,0.0,7.9,174.0,9.1,'11111222,11111222,11111222' 
TCOON,ioos:station:TCOON:057:1,2013-09-01T07:00:00Z,28.4460,-96.3961,0.0,7.0,174.0,9.1,'11111222,11111222,11111222' 
TCOON,ioos:station:TCOON:057:1,2013-09-01T07:06:00Z,28.4460,-96.3961,0.0,7.4,177.0,8.8,'11111222,11111222,11111222' 
TCOON,ioos:station:TCOON:057:1,2013-09-01T07:12:00Z,28.4460,-96.3961,0.0,8.3,178.0,9.5,'11111222,11111222,11111222' 
TCOON,ioos:station:TCOON:057:1,2013-09-01T07:18:00Z,28.4460,-96.3961,0.0,7.0,179.0,8.8,'11111222,11111222,11111222' 
TCOON,ioos:station:TCOON:057:1,2013-09-01T07:24:00Z,28.4460,-96.3961,0.0,7.3,179.0,8.2,'11111222,11111222,11111222' 
TCOON,ioos:station:TCOON:057:1,2013-09-01T07:30:00Z,28.4460,-96.3961,0.0,7.1,184.0,8.3,'11111222,11111222,11111222' 
TCOON,ioos:station:TCOON:057:1,2013-09-01T07:36:00Z,28.4460,-96.3961,0.0,7.4,176.0,8.7,'11111222,11111222,11111222' 
TCOON,ioos:station:TCOON:057:1,2013-09-01T07:42:00Z,28.4460,-96.3961,0.0,7.6,173.0,9.3,'11111222,11111222,11111222' 
TCOON,ioos:station:TCOON:057:1,2013-09-01T07:48:00Z,28.4460,-96.3961,0.0,7.9,177.0,9.4,'11111222,11111222,11111222' 
TCOON,ioos:station:TCOON:057:1,2013-09-01T07:54:00Z,28.4460,-96.3961,0.0,8.2,179.0,9.4,'11111222,11111222,11111222' 
TCOON,ioos:station:TCOON:057:1,2013-09-01T08:00:00Z,28.4460,-96.3961,0.0,7.2,181.0,8.8,'11111222,11111222,11111222' 
TCOON,ioos:station:TCOON:057:1,2013-09-01T08:06:00Z,28.4460,-96.3961,0.0,7.4,181.0,8.9,'11111222,11111222,11111222' 
TCOON,ioos:station:TCOON:057:1,2013-09-01T08:12:00Z,28.4460,-96.3961,0.0,6.1,190.0,8.7,'11111222,11111222,11111222' 
TCOON,ioos:station:TCOON:057:1,2013-09-01T08:18:00Z,28.4460,-96.3961,0.0,7.0,192.0,8.2,'11111222,11111222,11111222' 
TCOON,ioos:station:TCOON:057:1,2013-09-01T08:24:00Z,28.4460,-96.3961,0.0,7.7,184.0,8.4,'11111222,11111222,11111222' 
TCOON,ioos:station:TCOON:057:1,2013-09-01T08:30:00Z,28.4460,-96.3961,0.0,6.9,192.0,8.0,'11111222,11111222,11111222' 
TCOON,ioos:station:TCOON:057:1,2013-09-01T08:36:00Z,28.4460,-96.3961,0.0,6.4,193.0,8.3,'11111222,11111222,11111222' 
TCOON,ioos:station:TCOON:057:1,2013-09-01T08:42:00Z,28.4460,-96.3961,0.0,5.7,197.0,7.6,'11111222,11111222,11111222' 
TCOON,ioos:station:TCOON:057:1,2013-09-01T08:48:00Z,28.4460,-96.3961,0.0,5.6,196.0,6.7,'11111222,11111222,11111222' 
TCOON,ioos:station:TCOON:057:1,2013-09-01T08:54:00Z,28.4460,-96.3961,0.0,6.3,192.0,7.6,'11111222,11111222,11111222' 
TCOON,ioos:station:TCOON:057:1,2013-09-01T09:00:00Z,28.4460,-96.3961,0.0,5.7,196.0,7.3,'11111222,11111222,11111222' 
TCOON,ioos:station:TCOON:057:1,2013-09-01T09:06:00Z,28.4460,-96.3961,0.0,4.5,197.0,6.4,'11111222,11111222,11111222' 
TCOON,ioos:station:TCOON:057:1,2013-09-01T09:12:00Z,28.4460,-96.3961,0.0,5.2,200.0,6.1,'11111222,11111222,11111222' 
TCOON,ioos:station:TCOON:057:1,2013-09-01T09:18:00Z,28.4460,-96.3961,0.0,4.6,198.0,6.2,'11111222,11111222,11111222' 
TCOON,ioos:station:TCOON:057:1,2013-09-01T09:24:00Z,28.4460,-96.3961,0.0,4.8,200.0,6.1,'11111222,11111222,11111222' 
TCOON,ioos:station:TCOON:057:1,2013-09-01T09:30:00Z,28.4460,-96.3961,0.0,5.1,200.0,6.8,'11111222,11111222,11111222' 
TCOON,ioos:station:TCOON:057:1,2013-09-01T09:36:00Z,28.4460,-96.3961,0.0,4.7,199.0,6.7,'11111222,11111222,11111222' 
TCOON,ioos:station:TCOON:057:1,2013-09-01T09:42:00Z,28.4460,-96.3961,0.0,4.5,203.0,5.5,'11111222,11111222,11111222' 
TCOON,ioos:station:TCOON:057:1,2013-09-01T09:48:00Z,28.4460,-96.3961,0.0,4.5,195.0,5.0,'11111222,11111222,11111222' 
TCOON,ioos:station:TCOON:057:1,2013-09-01T09:54:00Z,28.4460,-96.3961,0.0,3.7,195.0,4.9,'11111222,11111222,11111222' 
TCOON,ioos:station:TCOON:057:1,2013-09-01T10:00:00Z,28.4460,-96.3961,0.0,3.5,202.0,5.0,'11111222,11111222,11111222' 
TCOON,ioos:station:TCOON:057:1,2013-09-01T10:06:00Z,28.4460,-96.3961,0.0,4.0,200.0,4.9,'11111222,11111222,11111222' 
TCOON,ioos:station:TCOON:057:1,2013-09-01T10:12:00Z,28.4460,-96.3961,0.0,4.3,202.0,4.9,'11111222,11111222,11111222' 
TCOON,ioos:station:TCOON:057:1,2013-09-01T10:18:00Z,28.4460,-96.3961,0.0,4.5,201.0,5.2,'11111222,11111222,11111222' 
TCOON,ioos:station:TCOON:057:1,2013-09-01T10:24:00Z,28.4460,-96.3961,0.0,3.9,201.0,4.9,'11111222,11111222,11111222' 
TCOON,ioos:station:TCOON:057:1,2013-09-01T10:30:00Z,28.4460,-96.3961,0.0,4.3,204.0,5.0,'11111222,11111222,11111222' 
TCOON,ioos:station:TCOON:057:1,2013-09-01T10:36:00Z,28.4460,-96.3961,0.0,3.5,202.0,5.0,'11111222,11111222,11111222' 
TCOON,ioos:station:TCOON:057:1,2013-09-01T10:42:00Z,28.4460,-96.3961,0.0,3.7,200.0,4.2,'11111222,11111222,11111222' 
TCOON,ioos:station:TCOON:057:1,2013-09-01T10:48:00Z,28.4460,-96.3961,0.0,3.8,204.0,4.7,'11111222,11111222,11111222' 
TCOON,ioos:station:TCOON:057:1,2013-09-01T10:54:00Z,28.4460,-96.3961,0.0,4.2,194.0,4.8,'11111222,11111222,11111222' 
TCOON,ioos:station:TCOON:057:1,2013-09-01T11:00:00Z,28.4460,-96.3961,0.0,4.5,191.0,5.5,'11111222,11111222,11111222' 
TCOON,ioos:station:TCOON:057:1,2013-09-01T11:06:00Z,28.4460,-96.3961,0.0,3.5,201.0,4.5,'11111222,11111222,11111222' 
TCOON,ioos:station:TCOON:057:1,2013-09-01T11:12:00Z,28.4460,-96.3961,0.0,3.7,200.0,4.2,'11111222,11111222,11111222' 
TCOON,ioos:station:TCOON:057:1,2013-09-01T11:18:00Z,28.4460,-96.3961,0.0,4.0,199.0,4.8,'11111222,11111222,11111222' 
TCOON,ioos:station:TCOON:057:1,2013-09-01T11:24:00Z,28.4460,-96.3961,0.0,4.0,202.0,5.3,'11111222,11111222,11111222' 
TCOON,ioos:station:TCOON:057:1,2013-09-01T11:30:00Z,28.4460,-96.3961,0.0,3.6,203.0,4.3,'11111222,11111222,11111222' 
TCOON,ioos:station:TCOON:057:1,2013-09-01T11:36:00Z,28.4460,-96.3961,0.0,3.2,202.0,4.2,'11111222,11111222,11111222' 
TCOON,ioos:station:TCOON:057:1,2013-09-01T11:42:00Z,28.4460,-96.3961,0.0,3.3,201.0,3.9,'11111222,11111222,11111222' 
TCOON,ioos:station:TCOON:057:1,2013-09-01T11:48:00Z,28.4460,-96.3961,0.0,3.1,203.0,3.6,'11111222,11111222,11111222' 
TCOON,ioos:station:TCOON:057:1,2013-09-01T11:54:00Z,28.4460,-96.3961,0.0,2.4,204.0,3.1,'11111222,11111222,11111222' 
TCOON,ioos:station:TCOON:057:1,2013-09-01T12:00:00Z,28.4460,-96.3961,0.0,2.6,206.0,3.4,'11111222,11111222,11111222' 
TCOON,ioos:station:TCOON:057:1,2013-09-01T12:06:00Z,28.4460,-96.3961,0.0,2.4,203.0,3.4,'11111222,11111222,11111222' 
TCOON,ioos:station:TCOON:057:1,2013-09-01T12:12:00Z,28.4460,-96.3961,0.0,2.7,205.0,3.6,'11111222,11111222,11111222' 
TCOON,ioos:station:TCOON:057:1,2013-09-01T12:18:00Z,28.4460,-96.3961,0.0,2.6,208.0,3.2,'11111222,11111222,11111222' 
TCOON,ioos:station:TCOON:057:1,2013-09-01T12:24:00Z,28.4460,-96.3961,0.0,2.7,206.0,3.2,'11111222,11111222,11111222' 
TCOON,ioos:station:TCOON:057:1,2013-09-01T12:30:00Z,28.4460,-96.3961,0.0,2.4,204.0,3.0,'11111222,11111222,11111222' 
TCOON,ioos:station:TCOON:057:1,2013-09-01T12:36:00Z,28.4460,-96.3961,0.0,2.3,197.0,3.0,'11111222,11111222,11111222' 
TCOON,ioos:station:TCOON:057:1,2013-09-01T12:42:00Z,28.4460,-96.3961,0.0,2.1,197.0,2.8,'11111222,11111222,11111222' 
TCOON,ioos:station:TCOON:057:1,2013-09-01T12:48:00Z,28.4460,-96.3961,0.0,2.3,198.0,2.6,'11111222,11111222,11111222' 
TCOON,ioos:station:TCOON:057:1,2013-09-01T12:54:00Z,28.4460,-96.3961,0.0,2.2,197.0,2.5,'11111222,11111222,11111222' 
TCOON,ioos:station:TCOON:057:1,2013-09-01T13:00:00Z,28.4460,-96.3961,0.0,2.1,203.0,2.6,'11111222,11111222,11111222' 
TCOON,ioos:station:TCOON:057:1,2013-09-01T13:06:00Z,28.4460,-96.3961,0.0,1.7,199.0,2.2,'11111222,11111222,11111222' 
TCOON,ioos:station:TCOON:057:1,2013-09-01T13:12:00Z,28.4460,-96.3961,0.0,1.9,197.0,2.4,'11111222,11111222,11111222' 
TCOON,ioos:station:TCOON:057:1,2013-09-01T13:18:00Z,28.4460,-96.3961,0.0,1.6,207.0,2.1,'11111222,11111222,11111222' 
TCOON,ioos:station:TCOON:057:1,2013-09-01T13:24:00Z,28.4460,-96.3961,0.0,2.2,201.0,2.7,'11111222,11111222,11111222' 
TCOON,ioos:station:TCOON:057:1,2013-09-01T13:30:00Z,28.4460,-96.3961,0.0,2.8,211.0,3.5,'11111222,11111222,11111222' 
TCOON,ioos:station:TCOON:057:1,2013-09-01T13:36:00Z,28.4460,-96.3961,0.0,2.7,195.0,3.1,'11111222,11111222,11111222' 
TCOON,ioos:station:TCOON:057:1,2013-09-01T13:42:00Z,28.4460,-96.3961,0.0,3.0,200.0,3.4,'11111222,11111222,11111222' 
TCOON,ioos:station:TCOON:057:1,2013-09-01T13:48:00Z,28.4460,-96.3961,0.0,2.6,182.0,3.1,'11111222,11111222,11111222' 
TCOON,ioos:station:TCOON:057:1,2013-09-01T13:54:00Z,28.4460,-96.3961,0.0,2.7,171.0,3.6,'11111222,11111222,11111222' 
TCOON,ioos:station:TCOON:057:1,2013-09-01T14:00:00Z,28.4460,-96.3961,0.0,4.1,219.0,7.7,'11111222,11111222,11111222' 
TCOON,ioos:station:TCOON:057:1,2013-09-01T14:06:00Z,28.4460,-96.3961,0.0,3.8,228.0,4.8,'11111222,11111222,11111222' 
TCOON,ioos:station:TCOON:057:1,2013-09-01T14:12:00Z,28.4460,-96.3961,0.0,3.9,220.0,4.6,'11111222,11111222,11111222' 
TCOON,ioos:station:TCOON:057:1,2013-09-01T14:18:00Z,28.4460,-96.3961,0.0,3.6,213.0,4.7,'11111222,11111222,11111222' 
TCOON,ioos:station:TCOON:057:1,2013-09-01T14:24:00Z,28.4460,-96.3961,0.0,3.9,224.0,4.9,'11111222,11111222,11111222' 
TCOON,ioos:station:TCOON:057:1,2013-09-01T14:30:00Z,28.4460,-96.3961,0.0,4.2,222.0,4.7,'11111222,11111222,11111222' 
TCOON,ioos:station:TCOON:057:1,2013-09-01T14:36:00Z,28.4460,-96.3961,0.0,4.4,225.0,5.6,'11111222,11111222,11111222' 
TCOON,ioos:station:TCOON:057:1,2013-09-01T14:42:00Z,28.4460,-96.3961,0.0,4.5,207.0,5.4,'11111222,11111222,11111222' 
TCOON,ioos:station:TCOON:057:1,2013-09-01T14:48:00Z,28.4460,-96.3961,0.0,3.7,218.0,5.1,'11111222,11111222,11111222' 
TCOON,ioos:station:TCOON:057:1,2013-09-01T14:54:00Z,28.4460,-96.3961,0.0,2.9,212.0,4.3,'11111222,11111222,11111222' 
TCOON,ioos:station:TCOON:057:1,2013-09-01T15:00:00Z,28.4460,-96.3961,0.0,3.3,209.0,4.3,'11111222,11111222,11111222' 
TCOON,ioos:station:TCOON:057:1,2013-09-01T15:06:00Z,28.4460,-96.3961,0.0,3.6,207.0,5.2,'11111222,11111222,11111222' 
TCOON,ioos:station:TCOON:057:1,2013-09-01T15:12:00Z,28.4460,-96.3961,0.0,3.1,223.0,4.2,'11111222,11111222,11111222' 
TCOON,ioos:station:TCOON:057:1,2013-09-01T15:18:00Z,28.4460,-96.3961,0.0,3.8,199.0,5.1,'11111222,11111222,11111222' 
TCOON,ioos:station:TCOON:057:1,2013-09-01T15:24:00Z,28.4460,-96.3961,0.0,4.0,225.0,5.3,'11111222,11111222,11111222' 
TCOON,ioos:station:TCOON:057:1,2013-09-01T15:30:00Z,28.4460,-96.3961,0.0,3.0,227.0,5.2,'11111222,11111222,11111222' 
TCOON,ioos:station:TCOON:057:1,2013-09-01T15:36:00Z,28.4460,-96.3961,0.0,3.8,206.0,4.4,'11111222,11111222,11111222' 
TCOON,ioos:station:TCOON:057:1,2013-09-01T15:42:00Z,28.4460,-96.3961,0.0,3.8,222.0,5.5,'11111222,11111222,11111222' 
TCOON,ioos:station:TCOON:057:1,2013-09-01T15:48:00Z,28.4460,-96.3961,0.0,3.1,228.0,4.7,'11111222,11111222,11111222' 
TCOON,ioos:station:TCOON:057:1,2013-09-01T15:54:00Z,28.4460,-96.3961,0.0,3.3,212.0,4.9,'11111222,11111222,11111222' 
TCOON,ioos:station:TCOON:057:1,2013-09-01T16:00:00Z,28.4460,-96.3961,0.0,3.2,213.0,4.7,'11111222,11111222,11111222' 
TCOON,ioos:station:TCOON:057:1,2013-09-01T16:06:00Z,28.4460,-96.3961,0.0,4.0,218.0,5.1,'11111222,11111222,11111222' 
TCOON,ioos:station:TCOON:057:1,2013-09-01T16:12:00Z,28.4460,-96.3961,0.0,3.6,169.0,4.6,'11111222,11111222,11111222' 
TCOON,ioos:station:TCOON:057:1,2013-09-01T16:18:00Z,28.4460,-96.3961,0.0,4.4,160.0,5.4,'11111222,11111222,11111222' 
TCOON,ioos:station:TCOON:057:1,2013-09-01T16:24:00Z,28.4460,-96.3961,0.0,4.2,160.0,5.2,'11111222,11111222,11111222' 
TCOON,ioos:station:TCOON:057:1,2013-09-01T16:30:00Z,28.4460,-96.3961,0.0,4.6,160.0,5.3,'11111222,11111222,11111222' 
TCOON,ioos:station:TCOON:057:1,2013-09-01T16:36:00Z,28.4460,-96.3961,0.0,4.8,170.0,5.4,'11111222,11111222,11111222' 
TCOON,ioos:station:TCOON:057:1,2013-09-01T16:42:00Z,28.4460,-96.3961,0.0,4.8,163.0,5.6,'11111222,11111222,11111222' 
TCOON,ioos:station:TCOON:057:1,2013-09-01T16:48:00Z,28.4460,-96.3961,0.0,5.0,170.0,5.8,'11111222,11111222,11111222' 
TCOON,ioos:station:TCOON:057:1,2013-09-01T16:54:00Z,28.4460,-96.3961,0.0,4.9,169.0,5.7,'11111222,11111222,11111222' 
TCOON,ioos:station:TCOON:057:1,2013-09-01T17:00:00Z,28.4460,-96.3961,0.0,4.8,163.0,5.6,'11111222,11111222,11111222' 
TCOON,ioos:station:TCOON:057:1,2013-09-01T17:06:00Z,28.4460,-96.3961,0.0,4.5,173.0,5.4,'11111222,11111222,11111222' 
TCOON,ioos:station:TCOON:057:1,2013-09-01T17:12:00Z,28.4460,-96.3961,0.0,4.9,168.0,5.4,'11111222,11111222,11111222' 
TCOON,ioos:station:TCOON:057:1,2013-09-01T17:18:00Z,28.4460,-96.3961,0.0,4.3,168.0,5.4,'11111222,11111222,11111222' 
TCOON,ioos:station:TCOON:057:1,2013-09-01T17:24:00Z,28.4460,-96.3961,0.0,4.7,166.0,5.8,'11111222,11111222,11111222' 
TCOON,ioos:station:TCOON:057:1,2013-09-01T17:30:00Z,28.4460,-96.3961,0.0,4.9,169.0,5.5,'11111222,11111222,11111222' 
TCOON,ioos:station:TCOON:057:1,2013-09-01T17:36:00Z,28.4460,-96.3961,0.0,5.4,166.0,5.8,'11111222,11111222,11111222' 
TCOON,ioos:station:TCOON:057:1,2013-09-01T17:42:00Z,28.4460,-96.3961,0.0,5.2,163.0,6.2,'11111222,11111222,11111222' 
TCOON,ioos:station:TCOON:057:1,2013-09-01T17:48:00Z,28.4460,-96.3961,0.0,5.0,163.0,5.9,'11111222,11111222,11111222' 
TCOON,ioos:station:TCOON:057:1,2013-09-01T17:54:00Z,28.4460,-96.3961,0.0,5.0,168.0,5.9,'11111222,11111222,11111222' 
TCOON,ioos:station:TCOON:057:1,2013-09-01T18:00:00Z,28.4460,-96.3961,0.0,5.1,166.0,6.0,'11111222,11111222,11111222' 
TCOON,ioos:station:TCOON:057:1,2013-09-01T18:06:00Z,28.4460,-96.3961,0.0,5.1,165.0,6.0,'11111222,11111222,11111222' 
TCOON,ioos:station:TCOON:057:1,2013-09-01T18:12:00Z,28.4460,-96.3961,0.0,5.4,164.0,6.4,'11111222,11111222,11111222' 
TCOON,ioos:station:TCOON:057:1,2013-09-01T18:18:00Z,28.4460,-96.3961,0.0,4.9,163.0,6.0,'11111222,11111222,11111222' 
TCOON,ioos:station:TCOON:057:1,2013-09-01T18:24:00Z,28.4460,-96.3961,0.0,4.7,165.0,5.8,'11111222,11111222,11111222' 
TCOON,ioos:station:TCOON:057:1,2013-09-01T18:30:00Z,28.4460,-96.3961,0.0,4.6,164.0,5.5,'11111222,11111222,11111222' 
TCOON,ioos:station:TCOON:057:1,2013-09-01T18:36:00Z,28.4460,-96.3961,0.0,5.0,159.0,5.7,'11111222,11111222,11111222' 
TCOON,ioos:station:TCOON:057:1,2013-09-01T18:42:00Z,28.4460,-96.3961,0.0,5.3,169.0,5.8,'11111222,11111222,11111222' 
TCOON,ioos:station:TCOON:057:1,2013-09-01T18:48:00Z,28.4460,-96.3961,0.0,5.3,158.0,5.9,'11111222,11111222,11111222' 
TCOON,ioos:station:TCOON:057:1,2013-09-01T18:54:00Z,28.4460,-96.3961,0.0,5.2,153.0,5.9,'11111222,11111222,11111222' 
TCOON,ioos:station:TCOON:057:1,2013-09-01T19:00:00Z,28.4460,-96.3961,0.0,5.6,166.0,6.2,'11111222,11111222,11111222' 
TCOON,ioos:station:TCOON:057:1,2013-09-01T19:06:00Z,28.4460,-96.3961,0.0,5.2,158.0,6.1,'11111222,11111222,11111222' 
TCOON,ioos:station:TCOON:057:1,2013-09-01T19:12:00Z,28.4460,-96.3961,0.0,5.8,164.0,6.4,'11111222,11111222,11111222' 
TCOON,ioos:station:TCOON:057:1,2013-09-01T19:18:00Z,28.4460,-96.3961,0.0,5.7,165.0,6.5,'11111222,11111222,11111222' 
TCOON,ioos:station:TCOON:057:1,2013-09-01T19:24:00Z,28.4460,-96.3961,0.0,5.6,162.0,6.4,'11111222,11111222,11111222' 
TCOON,ioos:station:TCOON:057:1,2013-09-01T19:30:00Z,28.4460,-96.3961,0.0,5.3,172.0,6.3,'11111222,11111222,11111222' 
TCOON,ioos:station:TCOON:057:1,2013-09-01T19:36:00Z,28.4460,-96.3961,0.0,5.1,172.0,6.3,'11111222,11111222,11111222' 
TCOON,ioos:station:TCOON:057:1,2013-09-01T19:42:00Z,28.4460,-96.3961,0.0,5.2,164.0,6.3,'11111222,11111222,11111222' 
TCOON,ioos:station:TCOON:057:1,2013-09-01T19:48:00Z,28.4460,-96.3961,0.0,5.0,158.0,6.6,'11111222,11111222,11111222' 
TCOON,ioos:station:TCOON:057:1,2013-09-01T19:54:00Z,28.4460,-96.3961,0.0,5.9,157.0,6.5,'11111222,11111222,11111222' 
TCOON,ioos:station:TCOON:057:1,2013-09-01T20:00:00Z,28.4460,-96.3961,0.0,5.8,161.0,7.4,'11111222,11111222,11111222' 
TCOON,ioos:station:TCOON:057:1,2013-09-01T20:06:00Z,28.4460,-96.3961,0.0,5.2,165.0,7.2,'11111222,11111222,11111222' 
TCOON,ioos:station:TCOON:057:1,2013-09-01T20:12:00Z,28.4460,-96.3961,0.0,4.9,170.0,7.1,'11111222,11111222,11111222' 
TCOON,ioos:station:TCOON:057:1,2013-09-01T20:18:00Z,28.4460,-96.3961,0.0,5.1,162.0,6.2,'11111222,11111222,11111222' 